QPF
0.03 0.03 0.02 0.02 0.01 0.01 0.01 0.01 0.03 0.03 0.03 0.03 0.04 0.03 0.03 0.03 0.04 0.05 0.05 0.07 0.06 0.06 0.07 0.09 0.07 0.09 0.09 0.07 0.07 0.06 0.07 0.09 0.08 0.06 0.05 0.04 0.03 0.03 0.04 0.09 0.07 0.06 0.03
0.02 0.01 0.01 0.01 0.01 0.01 0.02 0.02 0.02 0.03 0.02 0.03 0.04 0.04 0.04 0.06 0.05 0.06 0.05 0.06 0.06 0.07 0.08 0.10 0.08 0.09 0.08 0.07 0.08 0.08 0.08 0.08 0.07 0.07 0.07 0.07 0.06 0.06 0.07 0.11 0.07 0.06 0.03
0.00 0.00 0.01 0.01 0.02 0.01 0.02 0.03 0.03 0.03 0.03 0.04 0.05 0.05 0.06 0.07 0.06 0.06 0.06 0.06 0.06 0.06 0.07 0.09 0.09 0.09 0.07 0.07 0.07 0.07 0.05 0.05 0.06 0.07 0.08 0.08 0.07 0.06 0.08 0.09 0.10 0.07 0.04
0.00 0.01 0.02 0.02 0.03 0.02 0.03 0.04 0.05 0.05 0.05 0.06 0.05 0.05 0.05 0.05 0.05 0.05 0.04 0.04 0.04 0.05 0.05 0.07 0.07 0.06 0.06 0.07 0.07 0.06 0.05 0.05 0.06 0.06 0.06 0.07 0.07 0.07 0.08 0.10 0.13 0.07 0.06
0.02 0.02 0.04 0.05 0.07 0.06 0.06 0.07 0.06 0.05 0.05 0.06 0.06 0.05 0.04 0.03 0.02 0.02 0.03 0.03 0.04 0.05 0.05 0.04 0.05 0.05 0.03 0.04 0.05 0.05 0.04 0.04 0.05 0.06 0.07 0.06 0.06 0.07 0.08 0.09 0.12 0.07 0.06
0.02 0.03 0.04 0.04 0.05 0.04 0.05 0.07 0.08 0.06 0.05 0.05 0.07 0.07 0.04 0.02 0.02 0.02 0.03 0.03 0.04 0.05 0.05 0.05 0.05 0.04 0.03 0.04 0.03 0.03 0.04 0.04 0.05 0.05 0.05 0.06 0.06 0.07 0.08 0.07 0.09 0.07 0.07
0.03 0.04 0.05 0.04 0.03 0.03 0.04 0.05 0.06 0.06 0.06 0.05 0.05 0.04 0.03 0.03 0.03 0.02 0.02 0.02 0.04 0.05 0.05 0.04 0.03 0.02 0.02 0.03 0.03 0.03 0.03 0.03 0.04 0.05 0.06 0.06 0.06 0.07 0.08 0.07 0.08 0.08 0.08
0.07 0.05 0.04 0.03 0.04 0.03 0.03 0.02 0.03 0.04 0.05 0.04 0.03 0.03 0.04 0.03 0.02 0.02 0.02 0.03 0.05 0.05 0.04 0.03 0.02 0.02 0.02 0.03 0.02 0.03 0.03 0.03 0.03 0.03 0.04 0.04 0.04 0.05 0.07 0.07 0.07 0.07 0.06
0.04 0.04 0.03 0.04 0.04 0.02 0.02 0.02 0.03 0.04 0.04 0.03 0.02 0.03 0.04 0.04 0.03 0.03 0.02 0.03 0.03 0.02 0.02 0.02 0.02 0.03 0.02 0.01 0.02 0.03 0.03 0.04 0.03 0.02 0.02 0.02 0.02 0.04 0.04 0.05 0.06 0.07 0.07
0.01 0.02 0.02 0.02 0.02 0.03 0.03 0.03 0.04 0.04 0.04 0.03 0.02 0.03 0.04 0.03 0.03 0.02 0.01 0.01 0.02 0.02 0.03 0.02 0.01 0.01 0.01 0.00 0.01 0.02 0.03 0.04 0.03 0.02 0.02 0.02 0.02 0.03 0.03 0.03 0.05 0.06 0.07
0.01 0.01 0.02 0.02 0.02 0.03 0.04 0.05 0.04 0.04 0.04 0.03 0.03 0.03 0.03 0.02 0.02 0.02 0.01 0.01 0.01 0.02 0.02 0.01 0.00 0.00 0.00 0.00 0.01 0.02 0.02 0.02 0.03 0.03 0.04 0.04 0.04 0.04 0.04 0.03 0.03 0.04 0.06
0.01 0.01 0.01 0.02 0.02 0.03 0.05 0.06 0.05 0.04 0.04 0.04 0.03 0.03 0.02 0.02 0.02 0.01 0.01 0.01 0.01 0.02 0.01 0.01 0.00 0.00 0.00 0.01 0.01 0.02 0.02 0.02 0.02 0.02 0.02 0.03 0.04 0.04 0.05 0.05 0.05 0.05 0.06
0.01 0.01 0.02 0.02 0.02 0.03 0.04 0.04 0.04 0.04 0.04 0.04 0.03 0.03 0.03 0.03 0.03 0.02 0.01 0.01 0.00 0.01 0.01 0.01 0.01 0.01 0.01 0.01 0.01 0.02 0.02 0.02 0.02 0.02 0.02 0.02 0.03 0.03 0.04 0.05 0.07 0.08 0.08
0.02 0.02 0.02 0.03 0.03 0.03 0.04 0.04 0.04 0.04 0.04 0.04 0.04 0.04 0.05 0.04 0.03 0.02 0.01 0.02 0.01 0.01 0.02 0.02 0.02 0.02 0.02 0.02 0.02 0.03 0.03 0.02 0.03 0.02 0.02 0.03 0.03 0.03 0.03 0.04 0.06 0.08 0.08
0.01 0.01 0.02 0.02 0.02 0.02 0.03 0.03 0.03 0.03 0.03 0.03 0.03 0.02 0.03 0.03 0.02 0.01 0.02 0.03 0.02 0.02 0.03 0.03 0.03 0.03 0.03 0.02 0.02 0.02 0.02 0.02 0.03 0.02 0.02 0.02 0.03 0.03 0.03 0.03 0.05 0.06 0.07
0.01 0.01 0.02 0.02 0.02 0.02 0.02 0.03 0.02 0.02 0.01 0.01 0.01 0.01 0.01 0.01 0.01 0.01 0.01 0.03 0.04 0.04 0.03 0.03 0.04 0.04 0.04 0.03 0.03 0.02 0.02 0.02 0.02 0.02 0.02 0.02 0.03 0.02 0.02 0.03 0.05 0.05 0.05
0.02 0.02 0.02 0.02 0.02 0.02 0.02 0.02 0.03 0.03 0.02 0.01 0.01 0.01 0.00 0.01 0.01 0.01 0.01 0.03 0.05 0.05 0.04 0.05 0.06 0.05 0.04 0.03 0.02 0.01 0.01 0.01 0.02 0.02 0.02 0.02 0.02 0.03 0.02 0.03 0.04 0.04 0.04
0.03 0.03 0.03 0.02 0.02 0.02 0.02 0.03 0.03 0.05 0.04 0.03 0.02 0.02 0.01 0.01 0.01 0.01 0.02 0.03 0.05 0.06 0.06 0.07 0.07 0.05 0.04 0.02 0.01 0.01 0.01 0.02 0.02 0.02 0.02 0.03 0.03 0.03 0.02 0.03 0.03 0.04 0.05
0.03 0.03 0.02 0.02 0.02 0.02 0.02 0.02 0.02 0.03 0.04 0.04 0.03 0.03 0.02 0.01 0.01 0.01 0.02 0.03 0.06 0.07 0.06 0.06 0.04 0.03 0.02 0.01 0.01 0.01 0.02 0.02 0.01 0.01 0.02 0.02 0.03 0.02 0.02 0.02 0.04 0.06 0.06
0.03 0.03 0.02 0.02 0.02 0.02 0.03 0.03 0.02 0.02 0.02 0.02 0.02 0.03 0.03 0.02 0.03 0.03 0.03 0.04 0.05 0.06 0.04 0.03 0.03 0.02 0.02 0.01 0.01 0.02 0.02 0.02 0.01 0.01 0.01 0.02 0.01 0.02 0.03 0.04 0.04 0.04 0.03
0.03 0.04 0.03 0.02 0.02 0.02 0.02 0.02 0.02 0.01 0.01 0.02 0.02 0.02 0.02 0.02 0.03 0.03 0.03 0.03 0.03 0.04 0.03 0.03 0.03 0.02 0.02 0.01 0.01 0.02 0.02 0.02 0.01 0.01 0.01 0.02 0.02 0.01 0.02 0.02 0.03 0.03 0.04
0.02 0.02 0.02 0.02 0.01 0.02 0.01 0.01 0.01 0.01 0.01 0.02 0.02 0.02 0.02 0.01 0.01 0.02 0.02 0.02 0.02 0.03 0.03 0.03 0.02 0.02 0.02 0.02 0.01 0.01 0.01 0.01 0.01 0.01 0.02 0.02 0.02 0.02 0.01 0.02 0.02 0.03 0.04
0.01 0.01 0.02 0.02 0.02 0.02 0.01 0.01 0.01 0.01 0.01 0.01 0.01 0.01 0.01 0.01 0.01 0.01 0.01 0.01 0.02 0.02 0.02 0.02 0.02 0.02 0.01 0.01 0.01 0.01 0.01 0.01 0.01 0.01 0.02 0.02 0.02 0.02 0.02 0.02 0.03 0.03 0.03
0.01 0.01 0.02 0.02 0.02 0.02 0.01 0.01 0.01 0.01 0.01 0.02 0.02 0.01 0.01 0.01 0.01 0.01 0.01 0.02 0.02 0.02 0.02 0.02 0.02 0.02 0.01 0.01 0.01 0.01 0.01 0.01 0.01 0.02 0.02 0.02 0.02 0.02 0.02 0.02 0.02 0.03 0.03
0.02 0.01 0.01 0.02 0.02 0.02 0.02 0.01 0.01 0.02 0.02 0.02 0.02 0.02 0.02 0.01 0.01 0.03 0.02 0.02 0.03 0.03 0.02 0.02 0.01 0.01 0.01 0.01 0.01 0.01 0.02 0.01 0.01 0.01 0.01 0.01 0.02 0.02 0.02 0.02 0.02 0.02 0.03
0.03 0.02 0.02 0.02 0.02 0.02 0.02 0.02 0.02 0.02 0.02 0.02 0.02 0.03 0.03 0.02 0.02 0.02 0.03 0.05 0.06 0.05 0.04 0.02 0.02 0.01 0.01 0.00 0.00 0.01 0.01 0.01 0.00 0.01 0.01 0.01 0.02 0.02 0.02 0.02 0.02 0.03 0.03
MSLP
1014.93 1015.30 1015.59 1015.78 1015.90 1015.97 1016.02 1016.05 1016.08 1016.10 1016.08 1015.99 1015.81 1015.51 1015.11 1014.62 1014.09 1013.58 1013.11 1012.74 1012.46 1012.27 1012.12 1011.96 1011.74 1011.41 1010.94 1010.33 1009.59 1008.77 1007.92 1007.09 1006.31 1005.60 1004.96 1004.40 1003.87 1003.37 1002.88 1002.41 1001.97 1001.60 1001.36
1015.15 1015.53 1015.81 1015.99 1016.10 1016.16 1016.22 1016.28 1016.35 1016.43 1016.47 1016.44 1016.31 1016.05 1015.66 1015.16 1014.59 1014.01 1013.47 1013.02 1012.67 1012.42 1012.24 1012.08 1011.89 1011.62 1011.23 1010.70 1010.05 1009.30 1008.50 1007.68 1006.89 1006.14 1005.44 1004.80 1004.19 1003.59 1003.02 1002.47 1001.97 1001.55 1001.28
1015.39 1015.77 1016.03 1016.20 1016.29 1016.36 1016.42 1016.51 1016.63 1016.75 1016.85 1016.89 1016.81 1016.59 1016.23 1015.73 1015.15 1014.52 1013.91 1013.38 1012.94 1012.61 1012.37 1012.18 1011.98 1011.73 1011.39 1010.94 1010.37 1009.70 1008.96 1008.20 1007.43 1006.68 1005.96 1005.26 1004.58 1003.92 1003.27 1002.65 1002.08 1001.61 1001.28
1015.64 1016.02 1016.27 1016.43 1016.52 1016.58 1016.65 1016.75 1016.90 1017.06 1017.21 1017.29 1017.27 1017.10 1016.77 1016.30 1015.71 1015.06 1014.40 1013.80 1013.28 1012.86 1012.53 1012.27 1012.02 1011.76 1011.43 1011.02 1010.51 1009.92 1009.26 1008.56 1007.85 1007.13 1006.41 1005.71 1005.00 1004.29 1003.59 1002.91 1002.29 1001.76 1001.37
1015.90 1016.28 1016.53 1016.69 1016.77 1016.83 1016.90 1017.00 1017.15 1017.33 1017.50 1017.61 1017.62 1017.50 1017.21 1016.77 1016.21 1015.56 1014.89 1014.23 1013.65 1013.14 1012.73 1012.38 1012.06 1011.74 1011.39 1010.99 1010.51 1009.97 1009.37 1008.74 1008.09 1007.42 1006.74 1006.05 1005.35 1004.63 1003.90 1003.19 1002.52 1001.93 1001.47
1016.13 1016.53 1016.80 1016.96 1017.04 1017.10 1017.16 1017.25 1017.38 1017.54 1017.70 1017.82 1017.85 1017.75 1017.51 1017.11 1016.59 1015.98 1015.32 1014.65 1014.02 1013.46 1012.96 1012.52 1012.12 1011.72 1011.32 1010.88 1010.41 1009.89 1009.33 1008.76 1008.16 1007.55 1006.92 1006.26 1005.58 1004.87 1004.14 1003.41 1002.70 1002.06 1001.54
1016.33 1016.76 1017.05 1017.23 1017.32 1017.37 1017.41 1017.47 1017.56 1017.69 1017.81 1017.91 1017.93 1017.85 1017.64 1017.30 1016.84 1016.28 1015.66 1015.01 1014.38 1013.78 1013.22 1012.71 1012.22 1011.75 1011.27 1010.78 1010.28 1009.75 1009.22 1008.67 1008.12 1007.55 1006.97 1006.36 1005.71 1005.02 1004.30 1003.56 1002.83 1002.15 1001.56
1016.48 1016.94 1017.26 1017.47 1017.57 1017.62 1017.64 1017.66 1017.71 1017.78 1017.85 1017.90 1017.90 1017.82 1017.64 1017.35 1016.95 1016.46 1015.90 1015.31 1014.70 1014.10 1013.51 1012.94 1012.39 1011.84 1011.30 1010.75 1010.21 1009.66 1009.12 1008.59 1008.06 1007.53 1006.98 1006.40 1005.78 1005.11 1004.40 1003.65 1002.90 1002.19 1001.55
1016.56 1017.06 1017.42 1017.65 1017.78 1017.83 1017.84 1017.83 1017.83 1017.84 1017.85 1017.85 1017.82 1017.73 1017.57 1017.32 1016.98 1016.57 1016.08 1015.55 1014.98 1014.40 1013.81 1013.21 1012.61 1012.01 1011.42 1010.83 1010.25 1009.68 1009.13 1008.60 1008.08 1007.57 1007.04 1006.48 1005.87 1005.21 1004.50 1003.75 1002.99 1002.25 1001.56
1016.59 1017.11 1017.50 1017.76 1017.91 1017.98 1017.98 1017.96 1017.92 1017.89 1017.85 1017.81 1017.75 1017.66 1017.51 1017.29 1017.01 1016.66 1016.24 1015.76 1015.24 1014.69 1014.10 1013.50 1012.88 1012.26 1011.63 1011.01 1010.41 1009.83 1009.28 1008.75 1008.24 1007.73 1007.20 1006.65 1006.05 1005.39 1004.68 1003.92 1003.15 1002.38 1001.67
1016.56 1017.09 1017.49 1017.78 1017.96 1018.04 1018.06 1018.04 1018.00 1017.94 1017.89 1017.83 1017.75 1017.65 1017.51 1017.32 1017.08 1016.77 1016.40 1015.97 1015.48 1014.95 1014.38 1013.78 1013.16 1012.53 1011.90 1011.28 1010.67 1010.10 1009.55 1009.03 1008.52 1008.02 1007.50 1006.94 1006.34 1005.68 1004.96 1004.20 1003.42 1002.64 1001.91
1016.47 1016.98 1017.39 1017.70 1017.90 1018.01 1018.06 1018.06 1018.03 1017.99 1017.95 1017.89 1017.82 1017.74 1017.61 1017.45 1017.22 1016.94 1016.60 1016.18 1015.71 1015.19 1014.63 1014.03 1013.41 1012.79 1012.17 1011.56 1010.98 1010.43 1009.90 1009.40 1008.90 1008.41 1007.89 1007.33 1006.72 1006.06 1005.34 1004.59 1003.81 1003.04 1002.31
1016.32 1016.80 1017.20 1017.50 1017.72 1017.86 1017.95 1017.99 1018.01 1018.01 1018.01 1017.99 1017.95 1017.89 1017.79 1017.65 1017.44 1017.16 1016.82 1016.40 1015.92 1015.39 1014.82 1014.22 1013.60 1012.99 1012.39 1011.82 1011.27 1010.75 1010.26 1009.79 1009.32 1008.83 1008.32 1007.77 1007.17 1006.51 1005.81 1005.07 1004.32 1003.57 1002.86
1016.12 1016.55 1016.91 1017.20 1017.43 1017.60 1017.72 1017.82 1017.90 1017.97 1018.02 1018.06 1018.08 1018.06 1018.00 1017.87 1017.67 1017.39 1017.03 1016.60 1016.09 1015.54 1014.95 1014.34 1013.72 1013.13 1012.55 1012.02 1011.51 1011.04 1010.59 1010.15 1009.71 1009.25 1008.75 1008.21 1007.63 1006.99 1006.32 1005.62 1004.91 1004.21 1003.53
1015.86 1016.23 1016.55 1016.81 1017.03 1017.22 1017.38 1017.53 1017.67 1017.81 1017.94 1018.05 1018.14 1018.18 1018.15 1018.05 1017.86 1017.57 1017.20 1016.74 1016.20 1015.62 1015.01 1014.39 1013.78 1013.20 1012.66 1012.17 1011.71 1011.28 1010.88 1010.48 1010.07 1009.63 1009.16 1008.64 1008.08 1007.48 1006.85 1006.20 1005.55 1004.91 1004.29
1015.57 1015.87 1016.13 1016.36 1016.56 1016.75 1016.93 1017.12 1017.32 1017.52 1017.72 1017.91 1018.06 1018.15 1018.17 1018.10 1017.92 1017.64 1017.26 1016.78 1016.23 1015.64 1015.02 1014.40 1013.81 1013.26 1012.76 1012.31 1011.90 1011.52 1011.16 1010.80 1010.41 1010.00 1009.55 1009.06 1008.53 1007.97 1007.39 1006.81 1006.23 1005.66 1005.11
1015.23 1015.48 1015.69 1015.87 1016.05 1016.22 1016.42 1016.63 1016.86 1017.11 1017.36 1017.60 1017.80 1017.95 1018.01 1017.97 1017.82 1017.55 1017.18 1016.71 1016.17 1015.59 1015.00 1014.41 1013.86 1013.35 1012.90 1012.51 1012.15 1011.82 1011.50 1011.16 1010.81 1010.41 1009.98 1009.51 1009.00 1008.48 1007.96 1007.43 1006.92 1006.43 1005.95
1014.87 1015.07 1015.24 1015.39 1015.54 1015.69 1015.88 1016.09 1016.33 1016.60 1016.88 1017.15 1017.38 1017.56 1017.65 1017.64 1017.52 1017.29 1016.95 1016.52 1016.03 1015.50 1014.96 1014.44 1013.96 1013.53 1013.15 1012.82 1012.52 1012.24 1011.95 1011.65 1011.30 1010.92 1010.49 1010.03 1009.55 1009.05 1008.56 1008.09 1007.64 1007.21 1006.79
1014.49 1014.67 1014.81 1014.93 1015.05 1015.19 1015.36 1015.55 1015.79 1016.05 1016.32 1016.59 1016.83 1017.02 1017.13 1017.15 1017.06 1016.87 1016.59 1016.23 1015.81 1015.37 1014.93 1014.51 1014.13 1013.80 1013.51 1013.27 1013.04 1012.81 1012.56 1012.27 1011.94 1011.56 1011.12 1010.66 1010.17 1009.69 1009.22 1008.78 1008.36 1007.98 1007.61
1014.09 1014.26 1014.40 1014.51 1014.62 1014.74 1014.89 1015.06 1015.27 1015.51 1015.75 1016.00 1016.22 1016.40 1016.51 1016.54 1016.49 1016.35 1016.13 1015.86 1015.55 1015.23 1014.91 1014.62 1014.37 1014.17 1013.99 1013.84 1013.68 1013.51 1013.30 1013.03 1012.70 1012.31 1011.86 1011.38 1010.88 1010.38 1009.91 1009.47 1009.07 1008.71 1008.37
1013.68 1013.86 1014.01 1014.13 1014.24 1014.36 1014.49 1014.64 1014.82 1015.02 1015.22 1015.43 1015.61 1015.76 1015.85 1015.89 1015.86 1015.78 1015.64 1015.46 1015.27 1015.08 1014.91 1014.77 1014.66 1014.59 1014.53 1014.48 1014.41 1014.29 1014.11 1013.86 1013.53 1013.12 1012.65 1012.14 1011.61 1011.09 1010.59 1010.14 1009.74 1009.38 1009.05
1013.25 1013.46 1013.63 1013.77 1013.90 1014.03 1014.16 1014.29 1014.44 1014.60 1014.76 1014.92 1015.05 1015.16 1015.24 1015.27 1015.26 1015.22 1015.15 1015.07 1015.00 1014.94 1014.91 1014.92 1014.96 1015.02 1015.08 1015.12 1015.13 1015.06 1014.92 1014.68 1014.34 1013.92 1013.42 1012.88 1012.31 1011.76 1011.23 1010.75 1010.33 1009.96 1009.63
1012.83 1013.05 1013.25 1013.43 1013.58 1013.73 1013.86 1014.00 1014.13 1014.26 1014.38 1014.49 1014.58 1014.65 1014.70 1014.72 1014.73 1014.72 1014.71 1014.72 1014.75 1014.81 1014.91 1015.05 1015.21 1015.39 1015.55 1015.68 1015.75 1015.74 1015.62 1015.39 1015.05 1014.62 1014.10 1013.52 1012.92 1012.33 1011.77 1011.27 1010.82 1010.44 1010.11
1012.40 1012.65 1012.87 1013.07 1013.25 1013.42 1013.57 1013.71 1013.83 1013.95 1014.04 1014.12 1014.18 1014.22 1014.24 1014.26 1014.27 1014.30 1014.34 1014.41 1014.53 1014.69 1014.89 1015.13 1015.39 1015.66 1015.91 1016.10 1016.22 1016.25 1016.15 1015.94 1015.60 1015.15 1014.62 1014.03 1013.41 1012.79 1012.21 1011.68 1011.22 1010.82 1010.50
1011.98 1012.23 1012.46 1012.68 1012.88 1013.07 1013.23 1013.38 1013.51 1013.62 1013.70 1013.76 1013.80 1013.83 1013.84 1013.86 1013.89 1013.94 1014.02 1014.15 1014.33 1014.56 1014.84 1015.15 1015.49 1015.82 1016.12 1016.36 1016.52 1016.57 1016.50 1016.29 1015.97 1015.52 1014.99 1014.40 1013.77 1013.15 1012.56 1012.02 1011.55 1011.15 1010.83
1011.56 1011.79 1012.02 1012.24 1012.45 1012.64 1012.82 1012.97 1013.11 1013.22 1013.30 1013.36 1013.40 1013.43 1013.45 1013.48 1013.53 1013.60 1013.72 1013.89 1014.12 1014.40 1014.73 1015.10 1015.48 1015.85 1016.19 1016.47 1016.65 1016.72 1016.67 1016.49 1016.18 1015.76 1015.24 1014.66 1014.05 1013.44 1012.86 1012.33 1011.86 1011.47 1011.16
Thickness
5783 5780 5777 5774 5772 5769 5765 5763 5760 5758 5755 5752 5749 5746 5744 5741 5739 5736 5733 5732 5729 5727 5726 5724 5721 5720 5718 5717 5716 5715 5713 5709 5703 5704 5707 5708 5706 5705 5703 5702 5701 5700 5698
5782 5778 5774 5773 5770 5766 5762 5759 5757 5754 5752 5749 5746 5742 5740 5736 5733 5730 5727 5726 5724 5721 5719 5717 5715 5714 5711 5709 5708 5706 5705 5704 5699 5696 5697 5698 5698 5698 5696 5695 5695 5695 5693
5781 5776 5772 5769 5767 5763 5759 5756 5754 5751 5748 5745 5741 5738 5735 5731 5727 5724 5721 5719 5718 5716 5713 5711 5709 5706 5703 5701 5700 5698 5697 5697 5695 5691 5690 5691 5690 5690 5688 5688 5688 5686 5687
5777 5773 5768 5766 5763 5760 5757 5753 5750 5747 5744 5741 5737 5733 5730 5727 5722 5719 5716 5714 5712 5710 5707 5705 5702 5700 5697 5695 5693 5691 5690 5688 5686 5684 5683 5683 5682 5682 5680 5677 5675 5676 5677
5773 5769 5765 5763 5761 5757 5754 5750 5746 5742 5740 5736 5732 5729 5725 5721 5717 5712 5709 5708 5705 5702 5700 5697 5696 5693 5690 5688 5687 5684 5682 5680 5678 5676 5675 5674 5673 5671 5669 5670 5667 5667 5668
5769 5766 5762 5759 5756 5752 5749 5745 5741 5737 5734 5730 5726 5722 5718 5714 5708 5705 5702 5701 5699 5696 5692 5690 5688 5686 5683 5681 5679 5677 5675 5672 5669 5667 5666 5664 5663 5663 5663 5662 5660 5657 5657
5766 5762 5757 5754 5750 5746 5744 5739 5735 5731 5727 5723 5719 5716 5711 5706 5702 5699 5696 5694 5693 5690 5686 5683 5682 5680 5675 5672 5671 5670 5668 5666 5664 5661 5658 5657 5656 5656 5655 5654 5653 5651 5650
5761 5757 5754 5750 5745 5741 5737 5733 5730 5726 5721 5717 5713 5710 5705 5700 5695 5692 5690 5689 5687 5683 5680 5677 5673 5669 5667 5664 5662 5660 5659 5658 5657 5655 5653 5651 5651 5650 5649 5648 5647 5647 5647
5756 5753 5750 5746 5741 5736 5731 5728 5724 5720 5716 5712 5708 5704 5699 5694 5690 5687 5684 5682 5679 5676 5673 5669 5666 5661 5658 5656 5654 5651 5650 5649 5650 5649 5647 5646 5645 5644 5642 5641 5639 5638 5636
5752 5749 5746 5741 5736 5731 5726 5722 5719 5715 5711 5707 5703 5700 5695 5689 5684 5681 5677 5675 5672 5668 5665 5661 5657 5653 5649 5646 5644 5642 5640 5640 5640 5640 5639 5639 5638 5638 5636 5634 5632 5630 5628
5749 5745 5740 5735 5731 5726 5721 5717 5713 5709 5706 5702 5698 5695 5691 5685 5679 5675 5671 5667 5664 5660 5657 5654 5649 5645 5641 5638 5636 5634 5632 5632 5632 5631 5631 5631 5631 5631 5629 5628 5626 5625 5622
5744 5739 5734 5730 5727 5723 5716 5711 5708 5704 5700 5696 5692 5688 5685 5680 5674 5669 5664 5660 5656 5652 5649 5647 5643 5638 5634 5631 5629 5627 5626 5625 5624 5623 5623 5623 5623 5622 5622 5622 5621 5620 5619
5737 5732 5728 5724 5721 5717 5711 5706 5702 5699 5695 5691 5687 5682 5679 5674 5668 5662 5658 5654 5650 5646 5643 5639 5635 5632 5628 5626 5623 5621 5619 5618 5616 5615 5614 5615 5615 5616 5616 5615 5614 5614 5614
5729 5725 5721 5717 5714 5710 5706 5702 5697 5693 5689 5685 5681 5677 5672 5667 5661 5655 5651 5647 5643 5639 5636 5632 5630 5627 5624 5621 5619 5616 5613 5612 5610 5608 5607 5608 5608 5608 5608 5607 5606 5606 5605
5722 5719 5716 5713 5709 5703 5698 5694 5690 5686 5682 5678 5675 5670 5665 5659 5653 5647 5643 5640 5637 5632 5627 5626 5625 5622 5619 5616 5614 5611 5608 5606 5604 5602 5601 5600 5600 5600 5600 5600 5598 5598 5598
5716 5713 5711 5708 5703 5699 5693 5688 5683 5680 5675 5672 5667 5662 5658 5652 5647 5642 5637 5634 5630 5626 5622 5622 5619 5616 5614 5611 5608 5604 5602 5600 5598 5597 5595 5594 5593 5593 5592 5593 5592 5591 5591
5712 5709 5707 5703 5699 5695 5690 5685 5679 5673 5668 5664 5660 5656 5651 5645 5641 5637 5632 5628 5625 5622 5619 5617 5614 5611 5608 5606 5602 5599 5596 5594 5593 5591 5590 5589 5588 5587 5587 5586 5585 5584 5585
5708 5704 5701 5698 5695 5692 5687 5683 5678 5672 5665 5661 5656 5650 5645 5640 5635 5631 5627 5622 5621 5619 5617 5613 5609 5606 5603 5600 5597 5593 5591 5589 5587 5585 5584 5583 5583 5582 5581 5580 5579 5578 5578
5702 5699 5696 5693 5690 5687 5683 5679 5675 5670 5664 5659 5654 5646 5640 5635 5629 5625 5621 5619 5618 5615 5612 5608 5604 5601 5597 5594 5590 5587 5584 5582 5580 5578 5576 5575 5575 5575 5574 5573 5573 5572 5572
5695 5691 5688 5686 5683 5681 5678 5674 5670 5665 5660 5655 5650 5645 5637 5631 5627 5623 5618 5616 5614 5610 5606 5602 5598 5595 5591 5587 5583 5580 5577 5574 5571 5570 5568 5567 5567 5567 5566 5567 5567 5566 5565
5690 5685 5681 5679 5678 5675 5672 5669 5666 5661 5656 5651 5647 5641 5634 5630 5627 5623 5618 5613 5609 5604 5600 5596 5592 5588 5584 5580 5576 5573 5570 5567 5563 5561 5560 5559 5558 5558 5559 5560 5560 5559 5559
5684 5680 5677 5674 5672 5669 5666 5664 5661 5656 5652 5648 5642 5636 5629 5626 5624 5619 5614 5608 5604 5599 5594 5590 5586 5582 5577 5574 5570 5566 5562 5559 5556 5553 5552 5551 5551 5551 5552 5552 5552 5552 5552
5678 5675 5672 5670 5666 5662 5659 5658 5655 5651 5647 5643 5638 5632 5625 5622 5618 5614 5609 5603 5598 5593 5588 5584 5579 5575 5571 5567 5563 5558 5553 5550 5547 5545 5544 5544 5543 5543 5544 5544 5544 5544 5544
5673 5670 5667 5664 5660 5657 5654 5651 5648 5645 5641 5637 5632 5627 5621 5617 5612 5607 5603 5598 5592 5588 5583 5578 5573 5569 5565 5560 5556 5551 5545 5541 5539 5539 5537 5537 5537 5537 5538 5537 5538 5538 5538
5667 5664 5661 5658 5654 5651 5648 5645 5641 5638 5634 5630 5626 5621 5616 5612 5607 5601 5597 5592 5587 5582 5577 5573 5567 5562 5558 5553 5548 5544 5540 5537 5534 5532 5532 5532 5532 5533 5533 5533 5532 5533 5533
5661 5659 5656 5653 5649 5646 5642 5638 5635 5632 5629 5625 5620 5616 5611 5606 5602 5597 5592 5586 5581 5576 5571 5566 5561 5556 5552 5548 5543 5539 5536 5533 5530 5528 5527 5528 5528 5528 5528 5527 5528 5528 5528